Bar Harbor, ME

11:17 PM EST on December 11, 2019 (GMT -0500)
Hancock County-Bar Harbor

Weather History for KBHB - October, 2019

Change the Weather History Date:

Wednesday, October 9, 2019

  Actual Average Record
Temperature  
Mean Temperature 51 °F -  
Max Temperature 59 °F 59 °F 84 °F (2011)
Min Temperature 43 °F 42 °F 30 °F (2002)
Degree Days  
Heating Degree Days 14    
Growing Degree Days 1 (Base 50)    
Moisture  
Dew Point 43 °F    
Average Humidity 77    
Maximum Humidity 93    
Minimum Humidity 55    
Precipitation  
Precipitation 0.00 in - - ()
Sea Level Pressure  
Sea Level Pressure 30.41 in    
Wind  
Wind Speed 6 mph (NNE)    
Max Wind Speed 9 mph    
Max Gust Speed -    
Visibility 10 miles    
Events      
Averages and records for this station are not official NWS values.
T = Trace of Precipitation, MM = Missing Value Source: NWS Daily Summary

Daily Weather History Graph

Daily Weather History Graph

Search for Another Location

Airport or City:

Astronomy

Oct. 09, 2019 Rise Set
Actual Time 6:40 AM EDT 6:00 PM EDT
Civil Twilight 6:11 AM EDT 6:29 PM EDT
Nautical Twilight 5:37 AM EDT 7:02 PM EDT
Astronomical Twilight 5:04 AM EDT 7:36 PM EDT
Moon 4:42 PM EDT (10/9) 2:10 AM EDT (10/9)
Length of Visible Light 12h 17m
Length of Day
11h 19m
Waxing Gibbous, 85% of the Moon is Illuminated
Oct 9
Waxing Gibbous
Oct 13
Full
Oct 21
Last Quarter
Oct 27
New
Nov 4
First Quarter

Hourly Weather History & Observations

Time (EDT) Temp. Windchill Dew Point Humidity Pressure Visibility Wind Dir Wind Speed Gust Speed Precip Events Conditions
12:56 AM 46.9 °F - 44.1 °F 90% 30.37 in 10.0 mi North 6.9 mph - N/A   Clear
1:56 AM 46.0 °F 43.1 °F 42.1 °F 86% 30.38 in 10.0 mi North 5.8 mph - N/A   Clear
2:56 AM 45.0 °F 41.2 °F 42.1 °F 90% 30.37 in 10.0 mi North 6.9 mph - N/A   Clear
3:56 AM 45.0 °F 41.8 °F 42.1 °F 90% 30.38 in 10.0 mi North 5.8 mph - N/A   Clear
4:56 AM 44.1 °F 41.5 °F 42.1 °F 93% 30.39 in 10.0 mi North 4.6 mph - N/A   Clear
5:56 AM 43.0 °F - 41.0 °F 93% 30.41 in 10.0 mi Calm Calm - N/A   Clear
6:56 AM 44.1 °F 41.5 °F 41.0 °F 89% 30.41 in 10.0 mi North 4.6 mph - N/A   Clear
7:56 AM 46.0 °F 44.8 °F 42.1 °F 86% 30.43 in 10.0 mi North 3.5 mph - N/A   Clear
8:56 AM 51.1 °F - 43.0 °F 74% 30.45 in 10.0 mi NNE 8.1 mph - N/A   Clear
9:56 AM 54.0 °F - 43.0 °F 66% 30.45 in 10.0 mi NNE 9.2 mph - N/A   Clear
10:56 AM 57.0 °F - 43.0 °F 59% 30.45 in 10.0 mi East 9.2 mph - N/A   Clear
11:56 AM 57.9 °F - 42.1 °F 56% 30.44 in 10.0 mi East 9.2 mph - N/A   Clear
12:56 PM 57.9 °F - 43.0 °F 58% 30.42 in 10.0 mi ENE 8.1 mph - N/A   Clear
1:56 PM 59.0 °F - 43.0 °F 55% 30.41 in 10.0 mi NE 9.2 mph - N/A   Clear
2:56 PM 57.9 °F - 43.0 °F 58% 30.40 in 10.0 mi ESE 8.1 mph - N/A   Clear
3:56 PM 57.0 °F - 43.0 °F 59% 30.39 in 10.0 mi East 4.6 mph - N/A   Clear
4:56 PM 55.9 °F - 43.0 °F 62% 30.40 in 10.0 mi East 3.5 mph - N/A   Clear
5:56 PM 50.0 °F - 45.0 °F 83% 30.39 in 10.0 mi North 3.5 mph - N/A   Clear
6:56 PM 48.0 °F - 45.0 °F 89% 30.40 in 10.0 mi Calm Calm - N/A   Clear
7:56 PM 50.0 °F - 44.1 °F 80% 30.40 in 10.0 mi North 5.8 mph - N/A   Clear
8:56 PM 48.0 °F - 44.1 °F 86% 30.42 in 10.0 mi North 4.6 mph - N/A   Clear
9:56 PM 46.9 °F - 43.0 °F 86% 30.42 in 10.0 mi North 3.5 mph - N/A   Clear
10:56 PM 46.9 °F - 42.1 °F 83% 30.41 in 10.0 mi North 6.9 mph - N/A   Clear
11:56 PM 46.0 °F 42.5 °F 42.1 °F 86% 30.40 in 10.0 mi North 6.9 mph - N/A   Clear